Home > Weather > Qatif > Past weeks

Flag for Saudi Arabia Weather for the Past 2 Weeks in Qatif, Saudi Arabia

Now
61 °F

Clear.


Feels Like: 61 °F
Forecast: 52 / 69 °F
Wind: 13 mph from North

Location: King Fahd International Airport

Current Time: Feb 12, 2016 at 6:13:55 PM

Latest Report: Feb 12, 2016 at 6:00 PM


Visibility: 10 mi

Pressure: 30.15 "Hg

Humidity: 45%

Dew point: 39 °F

Location of QatifLocation

Historic Weather in Qatif — Graph

°F

Qatif Temperature Yesterday

Maximum temperature yesterday: 75 °F (at 2:00 PM)
Minimum temperature yesterday: 46 °F (at 6:00 AM)
Average temperature yesterday: 59 °F

High & Low Weather Summary for the Past Weeks

 TemperatureHumidityPressure
High79 °F (Feb 7, 2:00 PM)87% (Feb 6, 5:00 AM)30.39 "Hg (Feb 6, 5:00 AM)
Low41 °F (Jan 29, 4:00 AM)13% (Jan 30, 2:00 PM)29.86 "Hg (Feb 7, 4:00 PM)
Average57 °F47%30.16 "Hg
* Reported Jan 28 5:00 PM — Feb 12 5:00 PM, Qatif, Weather by CustomWeather, © 2016

Note: Actual official high and low records may vary slightly from our data, if they occured in-between our weather recording intervals... More about our weather records

Advertising

Qatif Weather History for the Previous 24 Hours

 ConditionsComfort  
Time TempWeatherWind HumidityBarometerVisibility
5:00 PM
Fri, Feb 12
64 °FSunny.22 mph32%30.12 "Hg10 mi
4:00 PM64 °FSunny.22 mph34%30.12 "Hg10 mi
3:00 PM66 °FSunny.21 mph30%30.12 "Hg10 mi
2:00 PM66 °FSunny.20 mph30%30.12 "Hg10 mi
1:00 PM66 °FSunny.21 mph30%30.15 "Hg10 mi
12:00 PM64 °FSunny.18 mph34%30.15 "Hg10 mi
11:00 AM63 °FSunny.21 mph39%30.18 "Hg10 mi
10:00 AM61 °FSunny.23 mph42%30.21 "Hg10 mi
9:00 AM57 °FSunny.20 mph48%30.18 "Hg10 mi
8:00 AM52 °FSunny.16 mph58%30.18 "Hg10 mi
7:00 AM50 °FSunny.16 mph62%30.15 "Hg10 mi
6:00 AM50 °FClear.16 mph62%30.15 "Hg10 mi
5:00 AM50 °FClear.14 mph62%30.12 "Hg10 mi
4:00 AM52 °FClear.15 mph58%30.12 "Hg10 mi
3:00 AM52 °FClear.14 mph62%30.12 "Hg10 mi
2:00 AM54 °FClear.17 mph72%30.12 "Hg10 mi
1:00 AM55 °FClear.13 mph72%30.12 "Hg10 mi
12:00 AM57 °FClear.14 mph67%30.12 "Hg10 mi
11:00 PM
Thu, Feb 11
57 °FClear.10 mph67%30.15 "Hg10 mi
10:00 PM59 °FClear.13 mph63%30.15 "Hg10 mi
9:00 PM61 °FClear.13 mph63%30.12 "Hg10 mi
8:00 PM61 °FClear.15 mph59%30.12 "Hg10 mi
7:00 PM63 °FClear.18 mph59%30.09 "Hg10 mi
6:00 PM63 °FClear.12 mph52%30.07 "Hg10 mi
Weather by CustomWeather, © 2016

See weather overviewHow to use our weather pages